This demonstration page uses our WeatherBlox Daily Observations layout. Learn more.

Hourly Observations for September 27, 2016

Temp ( °F °C ) Dew Point ( °F °C ) Humidity (%) Winds ( mph kmh ) Pressure ( in mb ) Visibility ( mi km ) Precip ( " mm )
12:15 am 00:15 Clear 50 10 44 6.6 80 80 Calm 30.15 1021 10 16.09344 0 0
12:35 am 00:35 Clear 49 9.3 44 6.9 85 85 Calm 30.15 1021 10 16.09344 0 0
12:55 am 00:55 Clear 51 10.3 45 7 80 80 SW 6 9 30.15 1021 10 16.09344 0 0
1:15 am 01:15 Clear 51 10.7 43 6.1 73 73 SW 5 7 30.12 1020 10 16.09344 0 0
1:35 am 01:35 Clear 51 10.7 42 5.5 71 71 Calm 30.12 1020 10 16.09344 0 0
1:55 am 01:55 Clear 47 8.2 42 5.6 84 84 Calm 30.15 1021 10 16.09344 0 0
2:15 am 02:15 Clear 46 8 42 5.8 86 86 NNW 3 6 30.15 1021 10 16.09344 0 0
2:35 am 02:35 Clear 46 8 42 5.4 84 84 NW 5 7 30.15 1021 10 16.09344 0 0
2:55 am 02:55 Clear 46 7.6 42 5.3 86 86 Calm 30.15 1021 10 16.09344 0 0
3:15 am 03:15 Clear 46 7.9 42 5.5 85 85 Calm 30.15 1021 10 16.09344 0 0
3:35 am 03:35 Clear 46 8 42 5.5 84 84 NW 5 7 30.15 1021 10 16.09344 0 0
3:55 am 03:55 Clear 46 7.9 42 5.5 85 85 NW 3 6 30.15 1021 10 16.09344 0 0
4:15 am 04:15 Clear 46 8 42 5.4 84 84 NW 5 7 30.15 1021 10 16.09344 0 0
4:35 am 04:35 Clear 46 8 42 5.3 83 83 NW 5 7 30.15 1021 10 16.09344 0 0
4:55 am 04:55 Clear 47 8.1 42 5.4 83 83 NW 6 9 30.12 1020 10 16.09344 0 0
5:15 am 05:15 Clear 47 8.3 42 5.5 83 83 NW 5 7 30.12 1020 10 16.09344 0 0
5:35 am 05:35 Clear 46 8 41 5.2 83 83 NW 5 7 30.12 1020 10 16.09344 0 0
5:55 am 05:55 Clear 46 7.8 41 5.2 84 84 NW 5 7 30.12 1020 10 16.09344 0 0
6:15 am 06:15 Clear 46 7.7 41 5.1 84 84 NW 5 7 30.12 1020 10 16.09344 0 0
6:35 am 06:35 Clear 46 7.6 41 5 84 84 NW 6 9 30.12 1020 10 16.09344 0 0
6:55 am 06:55 Clear 46 7.9 40 4.6 80 80 NW 6 9 30.12 1020 10 16.09344 0 0
7:15 am 07:15 Clear 46 7.8 41 4.8 82 82 NW 7 11 30.12 1020 10 16.09344 0 0
7:35 am 07:35 Sunny 45 7.3 40 4.7 84 84 NW 7 11 30.12 1020 10 16.09344 0 0
7:55 am 07:55 Sunny 46 7.6 41 5.1 84 84 NW 7 11 30.12 1020 10 16.09344 0 0
8:15 am 08:15 Sunny 47 8.6 42 5.4 81 81 WNW 6 9 30.15 1021 10 16.09344 0 0
8:35 am 08:35 Sunny 49 9.7 43 6.3 80 80 NW 6 9 30.12 1020 10 16.09344 0 0
8:55 am 08:55 Sunny 53 11.7 44 6.6 71 71 NW 5 7 30.09 1019 10 16.09344 0 0
9:15 am 09:15 Sunny 57 13.7 45 7.2 65 65 NW 5 7 30.06 1018 10 16.09344 0 0
9:35 am 09:35 Sunny 60 15.3 45 7.3 59 59 NW 5 7 30.06 1018 10 16.09344 0 0
9:55 am 09:55 Sunny 62 16.9 43 6.3 50 50 NNW 5 7 30.03 1017 10 16.09344 0 0
10:15 am 10:15 Sunny 65 18.5 44 6.4 45 45 NNW 6 9 30.03 1017 10 16.09344 0 0
10:35 am 10:35 Sunny 68 20 43 6.2 41 41 NW 5 7 30.03 1017 10 16.09344 0 0
10:55 am 10:55 Sunny 70 21 41 4.9 35 35 N 3 6 30 1016 10 16.09344 0 0
11:15 am 11:15 Sunny 71 21.9 40 4.5 32 32 WNW 7 11 30 1016 10 16.09344 0 0
11:35 am 11:35 Sunny 73 22.6 40 4.3 30 30 NNW 5 7 30 1016 10 16.09344 0 0
11:55 am 11:55 Sunny 74 23.3 40 4.2 29 29 WNW 6 9 30 1016 10 16.09344 0 0
12:15 pm 12:15 Sunny 76 24.2 40 4.6 28 28 NW 7 11 29.94 1014 10 16.09344 0 0
12:35 pm 12:35 Sunny 76 24.6 40 4.4 27 27 WNW 7 11 29.94 1014 10 16.09344 0 0
12:55 pm 12:55 Sunny 77 24.8 40 4.5 27 27 WSW 8 13 29.91 1013 10 16.09344 0 0
1:15 pm 13:15 Sunny 77 25.2 40 4.5 26 26 WNW 3 6 29.91 1013 10 16.09344 0 0
1:35 pm 13:35 Sunny 79 25.9 41 5 26 26 W 10 17 29.91 1013 10 16.09344 0 0
1:55 pm 13:55 Sunny 80 26.4 41 4.8 25 25 W 8 13 29.91 1013 10 16.09344 0 0
2:15 pm 14:15 Sunny 80 26.9 41 5.1 25 25 WNW 10 17 29.85 1011 10 16.09344 0 0
2:35 pm 14:35 Sunny 81 27.1 42 5.4 25 25 SW 7 11 29.85 1011 10 16.09344 0 0
2:55 pm 14:55 Sunny 80 26.7 41 5 25 25 WSW 7 11 29.88 1012 10 16.09344 0 0
3:15 pm 15:15 Sunny 81 27.1 41 5.1 24 24 W 6 9 29.85 1011 10 16.09344 0 0
3:35 pm 15:35 Sunny 81 27.4 41 5 24 24 WNW 8 13 29.83 1010 10 16.09344 0 0
3:55 pm 15:55 Sunny 81 27.4 41 5 24 24 W 9 15 29.83 1010 10 16.09344 0 0
4:15 pm 16:15 Sunny 82 27.8 42 5.5 24 24 W 8 13 29.83 1010 10 16.09344 0 0
4:35 pm 16:35 Sunny 82 27.9 42 5.5 24 24 W 9 15 29.8 1009 10 16.09344 0 0
4:55 pm 16:55 Sunny 82 28 42 5.4 24 24 WNW 7 11 29.8 1009 10 16.09344 0 0
5:35 pm 17:35 Sunny 83 28.2 41 5 23 23 WNW 9 15 29.8 1009 10 16.09344 0 0
5:55 pm 17:55 Sunny 83 28.2 41 4.9 23 23 W 9 15 29.8 1009 10 16.09344 0 0
6:15 pm 18:15 Sunny 82 28 41 5.1 23 23 WNW 6 9 29.77 1008 10 16.09344 0 0
6:35 pm 18:35 Sunny 81 27.4 42 5.6 25 25 W 5 7 29.77 1008 10 16.09344 0 0
6:55 pm 18:55 Sunny 79 26 43 6.3 28 28 W 3 6 29.77 1008 10 16.09344 0 0
7:15 pm 19:15 Sunny 76 24.5 44 6.5 32 32 WSW 3 6 29.8 1009 10 16.09344 0 0
7:35 pm 19:35 Clear 72 22.3 46 7.6 39 39 WSW 3 6 29.8 1009 10 16.09344 0 0
7:55 pm 19:55 Clear 70 21 46 7.9 43 43 Calm 29.83 1010 10 16.09344 0 0
8:15 pm 20:15 Clear 68 19.9 46 7.5 45 45 WSW 5 7 29.83 1010 10 16.09344 0 0
8:35 pm 20:35 Clear 67 19.7 46 7.9 47 47 Calm 29.83 1010 10 16.09344 0 0
8:55 pm 20:55 Clear 62 16.5 48 8.9 61 61 Calm 29.88 1012 10 16.09344 0 0
9:15 pm 21:15 Clear 62 16.6 47 8.2 58 58 NW 5 7 29.88 1012 7 11.265408 0 0
9:35 pm 21:35 Hazy 61 16 47 8.3 60 60 NNW 3 6 29.88 1012 5 8.04672 0 0
9:55 pm 21:55 Clear 58 14.5 47 8.1 66 66 NNW 3 6 29.94 1014 7 11.265408 0 0
10:15 pm 22:15 Clear 58 14.6 47 8.4 67 67 NW 3 6 29.94 1014 10 16.09344 0 0
10:35 pm 22:35 Clear 58 14.2 47 8.6 69 69 NNW 3 6 29.94 1014 10 16.09344 0 0
10:55 pm 22:55 Clear 56 13.6 47 8.5 72 72 NNW 3 6 29.94 1014 10 16.09344 0 0
11:15 pm 23:15 Clear 55 12.7 47 8.5 76 76 NNW 5 7 29.94 1014 10 16.09344 0 0
11:35 pm 23:35 Clear 55 12.9 46 8 72 72 N 6 9 29.94 1014 10 16.09344 0 0
11:55 pm 23:55 Clear 56 13.5 46 7.6 68 68 NNW 5 7 29.97 1015 10 16.09344 0 0

Powered by AerisWeather